Location: Härggis
(46.9540°N, 8.4897°E)
Time: 19:36:01
(UTC+00:00)

Cosmos 1703 - Pass Details

Date: 27 May 2022
Orbit: 518 x 535 km, 82.5° (Epoch: 02 July)

Event Time Altitude Azimuth Distance (km) Brightness Sun altitude
Exits shadow 01:25:33 17° 154° (SSE) 1,396 5.0 -16.4°
Maximum altitude 01:28:10 39° 93° (E) 816 4.4 -16.2°
Drops below altitude 10° 01:31:51 10° 24° (NNE) 1,796 7.3 -15.9°
Sets 01:34:05 0° 17° (NNE) 2,689 8.4 -15.7°
